Regional Weather Roundup
Issued by NWS Jackson, KY

Home | Current Version | Previous Version | Graphics & Text | Print | Product List | Glossary On
Versions: 1 2 3 4 5 6 7 8 9 10 11 12 13 14 15 16 17 18 19 20 21 22 23 24 25 26 27
000
ASUS43 KJKL 120010
RWRJKL

EAST KENTUCKY HOURLY WEATHER ROUNDUP
NATIONAL WEATHER SERVICE JACKSON KY
700 PM EST MON DEC 11 2017

NOTE: "FAIR" INDICATES FEW OR NO CLOUDS BELOW 12,000 FEET WITH
NO SIGNIFICANT WEATHER AND/OR OBSTRUCTIONS TO VISIBILITY.

* THESE REPORTS ARE NOT UNDER NWS QUALITY CONTROL AND MAY NOT
  REPORT WEATHER SUCH AS PRECIPITATION AND FOG.

KYZ079-080-083-085-087-088-110-112-115-119-120-120100
...EASTERN KENTUCKY...

CITY           SKY/WX    TMP DP  RH WIND       PRES   REMARKS
JACKSON        PTCLDY    48  27  44 S8        29.78F
6HR MIN TEMP:  48; 6HR MAX TEMP:  53;

LONDON         PTCLDY    48  28  46 S7        29.81F
6HR MIN TEMP:  48; 6HR MAX TEMP:  54;

SOMERSET*      PTCLDY    52  28  40 S5        29.81F
MONTICELLO*    PTCLDY    54  30  40 VRB7      29.82F
6HR MIN TEMP:  47; 6HR MAX TEMP:  56;

WILLIAMSBURG*  CLEAR     46  30  53 S8        29.83S
MIDDLESBORO*   CLEAR     46  31  54 S8        29.87F
6HR MIN TEMP:  45; 6HR MAX TEMP:  53;

HARLAN APT*    CLEAR     46  28  49 CALM      29.85F
PIKE CO APT*     N/A     48  27  44 S9        29.79F
BIG SANDY APT* PTCLDY    51  26  39 S9        29.78F
6HR MIN TEMP:  47; 6HR MAX TEMP:  53;

MOREHEAD APT*  PTCLDY    48  27  43 S8        29.75F
$$

KYZ035-036-041-042-044-050-067-078-099-120100
...CENTRAL KENTUCKY...

CITY           SKY/WX    TMP DP  RH WIND       PRES   REMARKS
MT STERLING*   PTCLDY    46  30  53 SW6       29.77R
FLEMING/MASON* CLOUDY    42  28  57 W5        29.77R
DANVILLE*      PTCLDY    46  30  53 SW12      29.78S
LEXINGTON      PTCLDY    48  30  49 S14       29.76R
6HR MIN TEMP:  48; 6HR MAX TEMP:  53;

FRANKFORT      CLOUDY    45  28  51 S5        29.75R
6HR MIN TEMP:  45; 6HR MAX TEMP:  53;

LOUISVILLE     CLOUDY    52  30  43 S10       29.74F
6HR MIN TEMP:  50; 6HR MAX TEMP:  55;

LEBANON*         N/A     48  30  49 S13       29.78R
GLASGOW*       CLOUDY    52  31  45 SW9       29.81S
BOWLING GREEN  CLOUDY    53  32  44 SW7       29.82R
6HR MIN TEMP:  52; 6HR MAX TEMP:  58;

$$

KYZ091>093-OHZ055-061-077-WVZ005-015-034-035-042-120100
...SOUTHERN OHIO/WEST VIRGINIA...

CITY           SKY/WX    TMP DP  RH WIND       PRES   REMARKS
COVINGTON      CLOUDY    41  29  62 S7        29.70F
COLUMBUS       CLOUDY    36  26  67 SE7       29.76F WCI  30
DAYTON         CLOUDY    36  29  75 SE10      29.71F WCI  28
WILMINGTON     CLOUDY    35  30  82 SE7       29.72F WCI  29
HUNTINGTON     PTCLDY    45  25  45 CALM      29.76F
CHARLESTON     MOCLDY    41  26  55 SE3       29.77F
PINEVILLE*       N/A     32  28  85 MISG      29.88F
BECKLEY        CLEAR     42  21  43 SE8       29.81F
BLUEFIELD      CLEAR     42  21  43 SW8       29.85F
LOGAN CO APT*    N/A     48  25  40 S8G20     29.78F
$$

VAZ002-007-008-TNZ017-027-036-066-071-120100
...SOUTHWEST VIRGINIA/EAST TENNESSEE...

CITY           SKY/WX    TMP DP  RH WIND       PRES   REMARKS
WISE*          CLEAR     43  28  56 SW13G18   29.85F
JONESVILLE*      N/A     37  28  70 CALM      29.90F
ABINGDON*      CLEAR     39  29  65 CALM      29.90S
BRISTOL        CLEAR     39  29  67 CALM      29.90F
MORRISTOWN*    CLEAR     46  28  49 S5        29.89F
SEVIERVILLE*   CLEAR     41  30  65 CALM      29.91S
KNOXVILLE      CLEAR     46  34  62 SW10      29.90F
LAFOLLETTE*    CLEAR     46  30  53 S5        29.90F
OAK RIDGE      CLEAR     50  32  50 VRB5      29.92F
CROSSVILLE     CLEAR     48  28  46 S10       29.89F
NASHVILLE      MOCLDY    56  29  35 S10G22    29.86R
$$

...KEY TO REMARKS...
VSB - VISIBILITY IN MILES
WCI - WIND CHILL INDEX
HX  - HEAT INDEX

$$




USA.gov is the U.S. government's official web portal to all federal, state and local government web resources and services.